Time,TemperatureF,DewpointF,PressureIn,WindDirection,WindDirectionDegrees,WindSpeedMPH,WindSpeedGustMPH,Humidity,HourlyPrecipIn,Conditions,Clouds,dailyrainin,SoftwareType,DateUTC
2013-05-08 00:01:00,58.6,56.3,30.10,ESE,107,0.0,0.0,92,0.00,,,0.00,Wunderground v.1.15,2013-05-08 04:01:00,
2013-05-08 00:02:00,58.6,56.3,30.10,ESE,107,0.0,0.0,92,0.00,,,0.00,Wunderground v.1.15,2013-05-08 04:02:00,
2013-05-08 00:04:00,58.6,56.3,30.10,ESE,107,0.0,0.0,92,0.00,,,0.00,Wunderground v.1.15,2013-05-08 04:04:00,
2013-05-08 00:05:00,58.5,56.2,30.09,ESE,107,0.0,0.0,92,0.00,,,0.00,Wunderground v.1.15,2013-05-08 04:05:00,
2013-05-08 00:09:00,58.5,56.5,30.09,WSW,244,0.0,0.0,93,0.00,,,0.00,Wunderground v.1.15,2013-05-08 04:09:00,
2013-05-08 00:14:00,58.3,56.3,30.09,WSW,244,0.0,0.0,93,0.00,,,0.00,Wunderground v.1.15,2013-05-08 04:14:00,
2013-05-08 00:20:00,58.2,56.2,30.09,NNW,336,0.0,2.0,93,0.00,,,0.00,Wunderground v.1.15,2013-05-08 04:20:00,
2013-05-08 00:26:00,58.2,56.2,30.09,NNW,336,0.0,2.0,93,0.00,,,0.00,Wunderground v.1.15,2013-05-08 04:26:00,
2013-05-08 00:31:00,58.1,56.1,30.09,NNW,336,0.0,0.0,93,0.00,,,0.00,Wunderground v.1.15,2013-05-08 04:31:00,
2013-05-08 00:36:00,58.0,55.7,30.09,NNW,336,0.0,0.0,92,0.00,,,0.00,Wunderground v.1.15,2013-05-08 04:36:00,
2013-05-08 00:41:00,57.8,55.8,30.09,NNW,336,0.0,0.0,93,0.00,,,0.00,Wunderground v.1.15,2013-05-08 04:41:00,
2013-05-08 00:46:00,57.7,55.7,30.09,NNW,336,0.0,0.0,93,0.00,,,0.00,Wunderground v.1.15,2013-05-08 04:46:00,
2013-05-08 00:51:00,57.5,55.5,30.09,NNW,336,0.0,0.0,93,0.00,,,0.00,Wunderground v.1.15,2013-05-08 04:51:00,
2013-05-08 00:56:00,57.4,55.4,30.09,NNW,336,0.0,0.0,93,0.00,,,0.00,Wunderground v.1.15,2013-05-08 04:56:00,
2013-05-08 01:02:00,57.2,55.2,30.09,NNW,336,0.0,1.0,93,0.00,,,0.00,Wunderground v.1.15,2013-05-08 05:02:00,
2013-05-08 01:09:00,57.1,55.4,30.10,NNW,336,0.0,1.0,94,0.00,,,0.00,Wunderground v.1.15,2013-05-08 05:09:00,
2013-05-08 01:14:00,57.1,55.4,30.09,NNW,336,0.0,1.0,94,0.00,,,0.00,Wunderground v.1.15,2013-05-08 05:14:00,
2013-05-08 01:19:00,57.1,55.7,30.09,NNW,336,0.0,1.0,95,0.00,,,0.00,Wunderground v.1.15,2013-05-08 05:19:00,
2013-05-08 01:24:00,57.2,55.8,30.09,NNW,336,0.0,0.0,95,0.00,,,0.00,Wunderground v.1.15,2013-05-08 05:24:00,
2013-05-08 01:29:00,57.3,55.9,30.09,SE,133,0.0,2.0,95,0.00,,,0.00,Wunderground v.1.15,2013-05-08 05:29:00,
2013-05-08 01:34:00,57.4,56.0,30.09,East,86,0.0,1.0,95,0.00,,,0.00,Wunderground v.1.15,2013-05-08 05:34:00,
2013-05-08 01:39:00,57.5,55.8,30.08,East,86,0.0,1.0,94,0.00,,,0.00,Wunderground v.1.15,2013-05-08 05:39:00,
2013-05-08 01:44:00,57.6,55.9,30.08,East,86,1.0,1.0,94,0.00,,,0.00,Wunderground v.1.15,2013-05-08 05:44:00,
2013-05-08 01:50:00,57.6,55.9,30.08,East,86,1.0,1.0,94,0.00,,,0.00,Wunderground v.1.15,2013-05-08 05:50:00,
2013-05-08 01:55:00,57.6,55.6,30.08,South,174,1.0,2.0,93,0.00,,,0.00,Wunderground v.1.15,2013-05-08 05:55:00,
2013-05-08 02:00:00,57.5,55.8,30.08,ESE,115,1.0,1.0,94,0.00,,,0.00,Wunderground v.1.15,2013-05-08 06:00:00,
2013-05-08 02:06:00,57.4,55.7,30.07,ESE,115,0.0,1.0,94,0.00,,,0.00,Wunderground v.1.15,2013-05-08 06:06:00,
2013-05-08 02:11:00,57.4,55.7,30.07,ESE,115,0.0,2.0,94,0.00,,,0.00,Wunderground v.1.15,2013-05-08 06:11:00,
2013-05-08 02:16:00,57.2,55.5,30.07,ESE,115,0.0,2.0,94,0.00,,,0.00,Wunderground v.1.15,2013-05-08 06:16:00,
2013-05-08 02:21:00,57.1,55.4,30.06,ESE,115,0.0,0.0,94,0.00,,,0.00,Wunderground v.1.15,2013-05-08 06:21:00,
2013-05-08 02:26:00,57.0,55.3,30.06,ESE,115,0.0,0.0,94,0.00,,,0.00,Wunderground v.1.15,2013-05-08 06:26:00,
2013-05-08 02:31:00,56.9,55.5,30.06,ESE,115,0.0,0.0,95,0.00,,,0.00,Wunderground v.1.15,2013-05-08 06:31:00,
2013-05-08 02:36:00,56.8,55.4,30.05,ESE,115,0.0,0.0,95,0.00,,,0.00,Wunderground v.1.15,2013-05-08 06:36:00,
2013-05-08 02:42:00,56.8,55.4,30.06,ESE,115,0.0,0.0,95,0.00,,,0.00,Wunderground v.1.15,2013-05-08 06:42:00,
2013-05-08 02:49:00,56.8,55.4,30.06,ESE,115,0.0,0.0,95,0.00,,,0.00,Wunderground v.1.15,2013-05-08 06:49:00,
2013-05-08 02:54:00,56.7,55.3,30.06,ESE,115,0.0,2.0,95,0.00,,,0.00,Wunderground v.1.15,2013-05-08 06:54:00,
2013-05-08 02:59:00,56.7,55.6,30.06,ESE,115,0.0,2.0,96,0.00,,,0.00,Wunderground v.1.15,2013-05-08 06:59:00,
2013-05-08 03:04:00,56.7,55.3,30.06,ESE,115,0.0,0.0,95,0.00,,,0.00,Wunderground v.1.15,2013-05-08 07:04:00,
2013-05-08 03:09:00,56.6,55.2,30.06,ESE,115,0.0,0.0,95,0.00,,,0.00,Wunderground v.1.15,2013-05-08 07:09:00,
2013-05-08 03:15:00,56.7,55.6,30.07,ESE,103,0.0,1.0,96,0.00,,,0.00,Wunderground v.1.15,2013-05-08 07:15:00,
2013-05-08 03:20:00,56.7,55.6,30.07,ESE,103,0.0,1.0,96,0.00,,,0.00,Wunderground v.1.15,2013-05-08 07:20:00,
2013-05-08 03:25:00,56.7,55.6,30.06,ESE,103,0.0,1.0,96,0.00,,,0.00,Wunderground v.1.15,2013-05-08 07:25:00,
2013-05-08 03:30:00,56.7,55.6,30.06,ESE,103,0.0,0.0,96,0.00,,,0.00,Wunderground v.1.15,2013-05-08 07:30:00,
2013-05-08 03:35:00,56.7,55.6,30.07,ESE,103,0.0,0.0,96,0.00,,,0.00,Wunderground v.1.15,2013-05-08 07:35:00,
2013-05-08 03:40:00,56.8,55.7,30.06,ESE,103,0.0,0.0,96,0.00,,,0.00,Wunderground v.1.15,2013-05-08 07:40:00,
2013-05-08 03:45:00,56.8,56.0,30.06,East,98,0.0,2.0,97,0.00,,,0.00,Wunderground v.1.15,2013-05-08 07:45:00,
2013-05-08 03:50:00,56.9,56.1,30.06,SE,129,1.0,1.0,97,0.00,,,0.00,Wunderground v.1.15,2013-05-08 07:50:00,
2013-05-08 03:55:00,57.0,56.2,30.06,SE,129,1.0,2.0,97,0.00,,,0.00,Wunderground v.1.15,2013-05-08 07:55:00,
2013-05-08 04:00:00,57.0,56.2,30.05,SE,129,0.0,0.0,97,0.00,,,0.00,Wunderground v.1.15,2013-05-08 08:00:00,
2013-05-08 04:06:00,57.0,56.2,30.05,SE,129,0.0,1.0,97,0.00,,,0.00,Wunderground v.1.15,2013-05-08 08:06:00,
2013-05-08 04:11:00,57.0,56.2,30.05,SE,129,0.0,0.0,97,0.00,,,0.00,Wunderground v.1.15,2013-05-08 08:11:00,
2013-05-08 04:17:00,57.0,56.2,30.05,SE,129,0.0,0.0,97,0.00,,,0.00,Wunderground v.1.15,2013-05-08 08:17:00,
2013-05-08 04:22:00,56.9,56.1,30.05,SE,129,0.0,0.0,97,0.00,,,0.00,Wunderground v.1.15,2013-05-08 08:22:00,
2013-05-08 04:27:00,56.9,56.1,30.05,SE,129,0.0,0.0,97,0.00,,,0.00,Wunderground v.1.15,2013-05-08 08:27:00,
2013-05-08 04:32:00,56.8,56.0,30.05,NNW,338,0.0,2.0,97,0.00,,,0.00,Wunderground v.1.15,2013-05-08 08:32:00,
2013-05-08 04:38:00,56.9,56.1,30.05,NNW,338,0.0,2.0,97,0.00,,,0.00,Wunderground v.1.15,2013-05-08 08:38:00,
2013-05-08 04:44:00,56.8,56.0,30.05,NNW,338,0.0,0.0,97,0.00,,,0.00,Wunderground v.1.15,2013-05-08 08:44:00,
2013-05-08 04:49:00,56.8,56.0,30.05,NNW,338,0.0,0.0,97,0.00,,,0.00,Wunderground v.1.15,2013-05-08 08:49:00,
2013-05-08 04:54:00,56.8,56.2,30.05,NNW,338,0.0,0.0,98,0.00,,,0.00,Wunderground v.1.15,2013-05-08 08:54:00,
2013-05-08 04:59:00,56.7,55.9,30.05,NNW,338,0.0,0.0,97,0.00,,,0.00,Wunderground v.1.15,2013-05-08 08:59:00,
2013-05-08 05:04:00,56.7,56.1,30.05,NNW,338,0.0,1.0,98,0.00,,,0.00,Wunderground v.1.15,2013-05-08 09:04:00,
2013-05-08 05:09:00,56.8,56.2,30.05,NNW,338,0.0,1.0,98,0.00,,,0.00,Wunderground v.1.15,2013-05-08 09:09:00,
2013-05-08 05:14:00,56.7,56.1,30.05,NNW,338,0.0,0.0,98,0.00,,,0.00,Wunderground v.1.15,2013-05-08 09:14:00,
2013-05-08 05:19:00,56.8,56.2,30.05,NNW,338,0.0,0.0,98,0.00,,,0.00,Wunderground v.1.15,2013-05-08 09:19:00,
2013-05-08 05:24:00,56.7,56.1,30.05,NNW,338,0.0,0.0,98,0.00,,,0.00,Wunderground v.1.15,2013-05-08 09:24:00,
2013-05-08 05:29:00,56.7,56.1,30.05,NNW,338,0.0,0.0,98,0.00,,,0.00,Wunderground v.1.15,2013-05-08 09:29:00,
2013-05-08 05:34:00,56.7,56.1,30.05,NNW,338,0.0,0.0,98,0.00,,,0.00,Wunderground v.1.15,2013-05-08 09:34:00,
2013-05-08 05:40:00,56.8,56.2,30.05,NNW,338,0.0,0.0,98,0.00,,,0.01,Wunderground v.1.15,2013-05-08 09:40:00,
2013-05-08 05:45:00,56.8,56.2,30.05,NNW,338,0.0,0.0,98,0.00,,,0.01,Wunderground v.1.15,2013-05-08 09:45:00,
2013-05-08 05:51:00,56.8,56.2,30.05,East,88,0.0,0.0,98,0.00,,,0.01,Wunderground v.1.15,2013-05-08 09:51:00,
2013-05-08 05:56:00,56.9,56.3,30.05,ESE,102,0.0,1.0,98,0.00,,,0.01,Wunderground v.1.15,2013-05-08 09:56:00,
2013-05-08 06:02:00,56.9,56.3,30.05,ESE,102,0.0,0.0,98,0.00,,,0.01,Wunderground v.1.15,2013-05-08 10:02:00,
2013-05-08 06:07:00,57.0,56.4,30.06,ESE,102,0.0,0.0,98,0.00,,,0.01,Wunderground v.1.15,2013-05-08 10:07:00,
2013-05-08 06:12:00,57.0,56.4,30.06,ESE,102,0.0,0.0,98,0.00,,,0.01,Wunderground v.1.15,2013-05-08 10:12:00,
2013-05-08 06:18:00,57.0,56.4,30.05,ESE,102,0.0,0.0,98,0.00,,,0.01,Wunderground v.1.15,2013-05-08 10:18:00,
2013-05-08 06:23:00,56.9,56.3,30.05,ESE,107,0.0,1.0,98,0.00,,,0.01,Wunderground v.1.15,2013-05-08 10:23:00,
2013-05-08 06:29:00,56.9,56.3,30.05,NNW,337,0.0,1.0,98,0.00,,,0.01,Wunderground v.1.15,2013-05-08 10:29:00,
2013-05-08 06:34:00,56.9,56.3,30.06,NNW,337,0.0,0.0,98,0.00,,,0.01,Wunderground v.1.15,2013-05-08 10:34:00,
2013-05-08 06:39:00,56.9,56.3,30.06,NNW,337,0.0,0.0,98,0.00,,,0.01,Wunderground v.1.15,2013-05-08 10:39:00,
2013-05-08 06:44:00,57.0,56.7,30.06,NNW,337,0.0,1.0,99,0.00,,,0.01,Wunderground v.1.15,2013-05-08 10:44:00,
2013-05-08 06:49:00,57.1,56.8,30.06,NNW,337,0.0,1.0,99,0.00,,,0.01,Wunderground v.1.15,2013-05-08 10:49:00,
2013-05-08 06:54:00,57.1,56.8,30.07,NNW,337,0.0,0.0,99,0.00,,,0.01,Wunderground v.1.15,2013-05-08 10:54:00,
2013-05-08 06:59:00,57.2,56.9,30.07,NNW,337,0.0,2.0,99,0.00,,,0.01,Wunderground v.1.15,2013-05-08 10:59:00,
2013-05-08 07:04:00,57.3,57.0,30.07,SSW,196,1.0,3.0,99,0.00,,,0.02,Wunderground v.1.15,2013-05-08 11:04:00,
2013-05-08 07:09:00,57.4,57.1,30.07,SSW,196,0.0,3.0,99,0.10,,,0.03,Wunderground v.1.15,2013-05-08 11:09:00,
2013-05-08 07:14:00,57.4,57.1,30.07,SSW,196,0.0,0.0,99,0.10,,,0.04,Wunderground v.1.15,2013-05-08 11:14:00,
2013-05-08 07:20:00,57.5,57.2,30.08,SSW,196,0.0,0.0,99,0.07,,,0.04,Wunderground v.1.15,2013-05-08 11:20:00,
2013-05-08 07:25:00,57.5,57.2,30.08,SSW,196,0.0,0.0,99,0.04,,,0.04,Wunderground v.1.15,2013-05-08 11:25:00,
2013-05-08 07:31:00,57.6,57.3,30.08,SSW,195,0.0,1.0,99,0.04,,,0.05,Wunderground v.1.15,2013-05-08 11:31:00,
2013-05-08 07:36:00,57.6,57.3,30.08,SSW,195,0.0,1.0,99,0.08,,,0.06,Wunderground v.1.15,2013-05-08 11:36:00,
2013-05-08 07:41:00,57.6,57.3,30.08,ENE,77,0.0,1.0,99,0.10,,,0.07,Wunderground v.1.15,2013-05-08 11:41:00,
2013-05-08 07:46:00,57.6,57.3,30.07,ENE,76,1.0,2.0,99,0.09,,,0.07,Wunderground v.1.15,2013-05-08 11:46:00,
2013-05-08 07:51:00,57.6,57.3,30.07,East,80,1.0,1.0,99,0.05,,,0.07,Wunderground v.1.15,2013-05-08 11:51:00,
2013-05-08 07:56:00,57.7,57.4,30.07,East,80,0.0,1.0,99,0.04,,,0.08,Wunderground v.1.15,2013-05-08 11:56:00,
2013-05-08 08:02:00,57.7,57.4,30.06,ENE,67,0.0,2.0,99,0.04,,,0.08,Wunderground v.1.15,2013-05-08 12:02:00,
2013-05-08 08:07:00,57.8,57.5,30.06,ENE,67,0.0,2.0,99,0.04,,,0.08,Wunderground v.1.15,2013-05-08 12:07:00,
2013-05-08 08:12:00,57.8,57.5,30.06,East,81,0.0,1.0,99,0.00,,,0.08,Wunderground v.1.15,2013-05-08 12:12:00,
2013-05-08 08:17:00,57.9,57.6,30.06,ENE,63,1.0,3.0,99,0.00,,,0.08,Wunderground v.1.15,2013-05-08 12:17:00,
2013-05-08 08:23:00,58.1,57.8,30.07,East,88,1.0,2.0,99,0.00,,,0.08,Wunderground v.1.15,2013-05-08 12:23:00,
2013-05-08 08:28:00,58.2,57.9,30.07,ENE,63,1.0,2.0,99,0.00,,,0.08,Wunderground v.1.15,2013-05-08 12:28:00,
2013-05-08 08:34:00,58.3,58.0,30.07,ENE,64,1.0,2.0,99,0.00,,,0.08,Wunderground v.1.15,2013-05-08 12:34:00,
2013-05-08 08:40:00,58.5,58.2,30.07,East,92,1.0,1.0,99,0.00,,,0.08,Wunderground v.1.15,2013-05-08 12:40:00,
2013-05-08 08:46:00,58.6,58.3,30.06,ESE,121,1.0,2.0,99,0.00,,,0.08,Wunderground v.1.15,2013-05-08 12:46:00,
2013-05-08 08:51:00,58.7,58.4,30.06,ESE,109,1.0,2.0,99,0.00,,,0.08,Wunderground v.1.15,2013-05-08 12:51:00,
2013-05-08 08:57:00,58.9,58.6,30.06,East,79,1.0,3.0,99,0.00,,,0.08,Wunderground v.1.15,2013-05-08 12:57:00,
2013-05-08 09:03:00,59.1,58.8,30.05,SSW,212,2.0,2.0,99,0.00,,,0.08,Wunderground v.1.15,2013-05-08 13:03:00,
2013-05-08 09:09:00,59.3,59.0,30.05,East,97,2.0,2.0,99,0.00,,,0.08,Wunderground v.1.15,2013-05-08 13:09:00,
2013-05-08 09:14:00,59.4,59.1,30.05,East,80,2.0,2.0,99,0.00,,,0.08,Wunderground v.1.15,2013-05-08 13:14:00,
2013-05-08 09:20:00,59.5,59.2,30.05,ESE,121,1.0,1.0,99,0.00,,,0.08,Wunderground v.1.15,2013-05-08 13:20:00,
2013-05-08 09:25:00,59.6,59.0,30.05,East,97,1.0,2.0,98,0.00,,,0.08,Wunderground v.1.15,2013-05-08 13:25:00,
2013-05-08 09:30:00,59.6,59.0,30.06,ENE,76,1.0,2.0,98,0.00,,,0.09,Wunderground v.1.15,2013-05-08 13:30:00,
2013-05-08 09:35:00,59.6,59.0,30.05,SSE,150,1.0,4.0,98,0.08,,,0.10,Wunderground v.1.15,2013-05-08 13:35:00,
2013-05-08 09:41:00,59.6,59.0,30.05,ESE,119,1.0,1.0,98,0.08,,,0.10,Wunderground v.1.15,2013-05-08 13:41:00,
2013-05-08 09:46:00,59.6,59.0,30.05,ESE,119,1.0,2.0,98,0.27,,,0.14,Wunderground v.1.15,2013-05-08 13:46:00,
2013-05-08 09:52:00,59.5,58.9,30.05,East,88,1.0,3.0,98,0.12,,,0.15,Wunderground v.1.15,2013-05-08 13:52:00,
2013-05-08 09:57:00,59.5,58.9,30.05,East,88,1.0,3.0,98,0.07,,,0.15,Wunderground v.1.15,2013-05-08 13:57:00,
2013-05-08 10:03:00,59.6,59.3,30.05,ENE,73,1.0,2.0,99,0.05,,,0.16,Wunderground v.1.15,2013-05-08 14:03:00,
2013-05-08 10:08:00,59.6,59.3,30.05,ESE,108,1.0,6.0,99,0.05,,,0.16,Wunderground v.1.15,2013-05-08 14:08:00,
2013-05-08 10:13:00,59.7,59.4,30.05,ESE,108,1.0,2.0,99,0.05,,,0.16,Wunderground v.1.15,2013-05-08 14:13:00,
2013-05-08 10:19:00,59.8,59.5,30.05,ESE,108,1.0,2.0,99,0.00,,,0.16,Wunderground v.1.15,2013-05-08 14:19:00,
2013-05-08 10:24:00,59.8,59.5,30.06,South,171,1.0,2.0,99,0.28,,,0.18,Wunderground v.1.15,2013-05-08 14:24:00,
2013-05-08 10:30:00,59.8,59.2,30.06,SSE,156,2.0,2.0,98,0.14,,,0.20,Wunderground v.1.15,2013-05-08 14:30:00,
2013-05-08 10:35:00,59.8,59.2,30.06,East,82,1.0,2.0,98,0.77,,,0.23,Wunderground v.1.15,2013-05-08 14:35:00,
2013-05-08 10:40:00,59.8,59.5,30.06,East,96,1.0,1.0,99,0.12,,,0.24,Wunderground v.1.15,2013-05-08 14:40:00,
2013-05-08 10:45:00,59.8,59.5,30.06,East,96,1.0,1.0,99,0.06,,,0.24,Wunderground v.1.15,2013-05-08 14:45:00,
2013-05-08 10:50:00,59.8,59.5,30.06,ENE,60,1.0,3.0,99,0.04,,,0.24,Wunderground v.1.15,2013-05-08 14:50:00,
2013-05-08 10:56:00,59.9,59.6,30.05,ENE,76,1.0,4.0,99,0.00,,,0.24,Wunderground v.1.15,2013-05-08 14:56:00,
2013-05-08 11:01:00,60.3,60.0,30.05,ESE,104,2.0,4.0,99,0.00,,,0.24,Wunderground v.1.15,2013-05-08 15:01:00,
2013-05-08 11:07:00,60.3,60.0,30.05,ESE,109,3.0,6.0,99,0.00,,,0.24,Wunderground v.1.15,2013-05-08 15:07:00,
2013-05-08 11:13:00,60.4,60.1,30.05,East,87,2.0,3.0,99,0.00,,,0.24,Wunderground v.1.15,2013-05-08 15:13:00,
2013-05-08 11:19:00,60.6,60.3,30.05,East,85,3.0,4.0,99,0.00,,,0.24,Wunderground v.1.15,2013-05-08 15:19:00,
2013-05-08 11:24:00,60.9,60.6,30.05,ESE,107,3.0,6.0,99,0.00,,,0.24,Wunderground v.1.15,2013-05-08 15:24:00,
2013-05-08 11:29:00,61.0,60.7,30.05,South,169,2.0,6.0,99,0.00,,,0.24,Wunderground v.1.15,2013-05-08 15:29:00,
2013-05-08 11:35:00,61.0,60.4,30.05,ESE,106,1.0,2.0,98,0.00,,,0.24,Wunderground v.1.15,2013-05-08 15:35:00,
2013-05-08 11:40:00,61.1,60.5,30.04,ESE,102,1.0,1.0,98,0.00,,,0.24,Wunderground v.1.15,2013-05-08 15:40:00,
2013-05-08 11:45:00,61.1,60.5,30.04,ESE,119,1.0,3.0,98,0.00,,,0.24,Wunderground v.1.15,2013-05-08 15:45:00,
2013-05-08 11:50:00,61.2,60.6,30.04,SSE,159,2.0,2.0,98,0.00,,,0.24,Wunderground v.1.15,2013-05-08 15:50:00,
2013-05-08 11:55:00,61.2,60.6,30.03,ESE,103,2.0,2.0,98,0.00,,,0.24,Wunderground v.1.15,2013-05-08 15:55:00,
2013-05-08 12:00:00,61.3,60.7,30.03,ESE,103,1.0,2.0,98,0.00,,,0.24,Wunderground v.1.15,2013-05-08 16:00:00,
2013-05-08 12:06:00,61.4,60.8,30.02,ESE,103,1.0,2.0,98,0.00,,,0.24,Wunderground v.1.15,2013-05-08 16:06:00,
2013-05-08 12:11:00,61.5,60.9,30.02,East,82,1.0,2.0,98,0.00,,,0.24,Wunderground v.1.15,2013-05-08 16:11:00,
2013-05-08 12:16:00,61.3,60.7,30.02,ENE,71,2.0,6.0,98,0.00,,,0.24,Wunderground v.1.15,2013-05-08 16:16:00,
2013-05-08 12:22:00,61.4,60.8,30.01,East,100,2.0,2.0,98,0.00,,,0.24,Wunderground v.1.15,2013-05-08 16:22:00,
2013-05-08 12:27:00,61.5,60.9,30.01,SE,144,2.0,4.0,98,0.00,,,0.24,Wunderground v.1.15,2013-05-08 16:27:00,
2013-05-08 12:32:00,61.8,61.2,30.00,ENE,57,2.0,4.0,98,0.00,,,0.24,Wunderground v.1.15,2013-05-08 16:32:00,
2013-05-08 12:37:00,61.7,60.8,30.00,ENE,63,2.0,4.0,97,0.00,,,0.24,Wunderground v.1.15,2013-05-08 16:37:00,
2013-05-08 12:42:00,61.7,60.8,30.00,ENE,66,2.0,3.0,97,0.00,,,0.24,Wunderground v.1.15,2013-05-08 16:42:00,
2013-05-08 12:48:00,61.7,60.8,29.99,NE,56,2.0,3.0,97,0.00,,,0.24,Wunderground v.1.15,2013-05-08 16:48:00,
2013-05-08 12:53:00,61.7,60.8,29.99,ESE,123,2.0,3.0,97,0.00,,,0.24,Wunderground v.1.15,2013-05-08 16:53:00,
2013-05-08 12:58:00,61.7,60.5,30.00,ENE,69,2.0,4.0,96,0.00,,,0.24,Wunderground v.1.15,2013-05-08 16:58:00,
2013-05-08 13:04:00,61.7,60.5,30.00,East,80,2.0,5.0,96,0.00,,,0.24,Wunderground v.1.15,2013-05-08 17:04:00,
2013-05-08 13:09:00,61.7,60.5,30.00,ESE,111,2.0,5.0,96,0.00,,,0.24,Wunderground v.1.15,2013-05-08 17:09:00,
2013-05-08 13:14:00,61.7,60.5,30.00,ENE,73,2.0,2.0,96,0.00,,,0.24,Wunderground v.1.15,2013-05-08 17:14:00,
2013-05-08 13:19:00,61.6,60.4,29.99,ESE,103,2.0,3.0,96,0.24,,,0.26,Wunderground v.1.15,2013-05-08 17:19:00,
2013-05-08 13:25:00,61.6,60.7,29.99,East,97,1.0,3.0,97,0.32,,,0.28,Wunderground v.1.15,2013-05-08 17:25:00,
2013-05-08 13:30:00,61.5,60.6,30.00,East,92,1.0,1.0,97,0.28,,,0.31,Wunderground v.1.15,2013-05-08 17:30:00,
2013-05-08 13:35:00,61.5,60.6,29.99,ESE,104,2.0,4.0,97,0.18,,,0.34,Wunderground v.1.15,2013-05-08 17:35:00,
2013-05-08 13:41:00,61.5,60.9,29.99,East,90,2.0,3.0,98,0.20,,,0.36,Wunderground v.1.15,2013-05-08 17:41:00,
2013-05-08 13:46:00,61.6,61.0,29.99,ENE,71,2.0,3.0,98,0.64,,,0.38,Wunderground v.1.15,2013-05-08 17:46:00,
2013-05-08 13:51:00,61.7,61.1,29.98,ENE,71,2.0,3.0,98,0.32,,,0.41,Wunderground v.1.15,2013-05-08 17:51:00,
2013-05-08 13:57:00,61.6,61.0,29.99,East,92,2.0,3.0,98,0.49,,,0.47,Wunderground v.1.15,2013-05-08 17:57:00,
2013-05-08 14:03:00,61.5,60.9,29.99,East,86,2.0,6.0,98,0.15,,,0.50,Wunderground v.1.15,2013-05-08 18:03:00,
2013-05-08 14:09:00,61.3,60.7,29.99,ESE,108,3.0,6.0,98,0.12,,,0.51,Wunderground v.1.15,2013-05-08 18:09:00,
2013-05-08 14:14:00,61.3,60.7,29.99,ENE,63,2.0,5.0,98,0.09,,,0.51,Wunderground v.1.15,2013-05-08 18:14:00,
2013-05-08 14:20:00,61.1,60.5,29.99,ESE,110,2.0,3.0,98,0.05,,,0.51,Wunderground v.1.15,2013-05-08 18:20:00,
2013-05-08 14:25:00,61.0,60.4,29.99,East,92,3.0,5.0,98,0.00,,,0.51,Wunderground v.1.15,2013-05-08 18:25:00,
2013-05-08 14:30:00,60.8,60.2,29.99,ESE,114,2.0,2.0,98,0.00,,,0.51,Wunderground v.1.15,2013-05-08 18:30:00,
2013-05-08 14:36:00,60.6,60.0,29.99,SE,134,3.0,3.0,98,0.00,,,0.51,Wunderground v.1.15,2013-05-08 18:36:00,
2013-05-08 14:41:00,60.5,59.9,29.99,ESE,115,2.0,2.0,98,0.00,,,0.51,Wunderground v.1.15,2013-05-08 18:41:00,
2013-05-08 14:47:00,60.4,59.8,29.99,East,80,2.0,4.0,98,0.00,,,0.51,Wunderground v.1.15,2013-05-08 18:47:00,
2013-05-08 14:52:00,60.3,60.0,29.99,SE,135,2.0,2.0,99,0.00,,,0.51,Wunderground v.1.15,2013-05-08 18:52:00,
2013-05-08 14:57:00,60.4,60.1,29.99,ESE,109,1.0,2.0,99,0.00,,,0.51,Wunderground v.1.15,2013-05-08 18:57:00,
2013-05-08 15:03:00,60.5,60.2,29.99,ESE,123,1.0,3.0,99,0.00,,,0.51,Wunderground v.1.15,2013-05-08 19:03:00,
2013-05-08 15:09:00,60.5,60.2,29.99,SSE,166,1.0,3.0,99,0.00,,,0.51,Wunderground v.1.15,2013-05-08 19:09:00,
2013-05-08 15:14:00,60.4,60.1,29.99,SE,128,1.0,3.0,99,0.00,,,0.51,Wunderground v.1.15,2013-05-08 19:14:00,
2013-05-08 15:19:00,60.3,60.0,29.98,ENE,69,2.0,3.0,99,0.00,,,0.51,Wunderground v.1.15,2013-05-08 19:19:00,
2013-05-08 15:25:00,60.3,60.0,29.98,SE,140,2.0,7.0,99,0.00,,,0.51,Wunderground v.1.15,2013-05-08 19:25:00,
2013-05-08 15:30:00,60.3,60.0,29.98,ESE,107,1.0,1.0,99,0.00,,,0.51,Wunderground v.1.15,2013-05-08 19:30:00,
2013-05-08 15:35:00,60.4,60.1,29.98,ESE,103,1.0,2.0,99,0.00,,,0.51,Wunderground v.1.15,2013-05-08 19:35:00,
2013-05-08 15:41:00,60.4,60.1,29.98,East,101,1.0,2.0,99,0.00,,,0.51,Wunderground v.1.15,2013-05-08 19:41:00,
2013-05-08 15:46:00,60.6,60.3,29.98,East,96,1.0,3.0,99,0.00,,,0.51,Wunderground v.1.15,2013-05-08 19:46:00,
2013-05-08 15:51:00,60.6,60.3,29.98,NE,56,1.0,2.0,99,0.00,,,0.51,Wunderground v.1.15,2013-05-08 19:51:00,
2013-05-08 15:57:00,60.6,60.3,29.98,East,90,1.0,2.0,99,0.00,,,0.51,Wunderground v.1.15,2013-05-08 19:57:00,
2013-05-08 16:03:00,60.7,60.4,29.98,SSE,148,2.0,2.0,99,0.00,,,0.51,Wunderground v.1.15,2013-05-08 20:03:00,
2013-05-08 16:08:00,60.7,60.4,29.98,SE,146,1.0,3.0,99,0.00,,,0.51,Wunderground v.1.15,2013-05-08 20:08:00,
2013-05-08 16:14:00,60.8,60.5,29.98,East,92,2.0,3.0,99,0.00,,,0.51,Wunderground v.1.15,2013-05-08 20:14:00,
2013-05-08 16:19:00,60.8,60.8,29.98,East,85,2.0,3.0,100,0.00,,,0.51,Wunderground v.1.15,2013-05-08 20:19:00,
2013-05-08 16:24:00,60.9,60.9,29.99,ESE,113,2.0,2.0,100,0.00,,,0.51,Wunderground v.1.15,2013-05-08 20:24:00,
2013-05-08 16:30:00,61.1,61.1,29.99,East,81,1.0,1.0,100,0.00,,,0.51,Wunderground v.1.15,2013-05-08 20:30:00,
2013-05-08 16:35:00,61.3,61.3,29.99,East,86,1.0,2.0,100,0.00,,,0.51,Wunderground v.1.15,2013-05-08 20:35:00,
2013-05-08 16:40:00,61.4,61.4,29.99,East,87,1.0,1.0,100,0.00,,,0.51,Wunderground v.1.15,2013-05-08 20:40:00,
2013-05-08 16:46:00,61.5,61.5,29.98,SE,128,1.0,1.0,100,0.00,,,0.51,Wunderground v.1.15,2013-05-08 20:46:00,
2013-05-08 16:51:00,61.8,61.8,29.98,East,86,1.0,3.0,100,0.00,,,0.51,Wunderground v.1.15,2013-05-08 20:51:00,
2013-05-08 16:56:00,61.9,61.9,29.98,SSE,155,1.0,3.0,100,0.00,,,0.51,Wunderground v.1.15,2013-05-08 20:56:00,
2013-05-08 17:02:00,61.9,61.6,29.98,East,99,1.0,2.0,99,0.00,,,0.51,Wunderground v.1.15,2013-05-08 21:02:00,
2013-05-08 17:07:00,62.0,61.7,29.98,ENE,62,1.0,3.0,99,0.00,,,0.51,Wunderground v.1.15,2013-05-08 21:07:00,
2013-05-08 17:12:00,62.0,61.7,29.98,ENE,57,1.0,2.0,99,0.00,,,0.51,Wunderground v.1.15,2013-05-08 21:12:00,
2013-05-08 17:18:00,61.9,61.3,29.98,ESE,103,2.0,3.0,98,0.00,,,0.51,Wunderground v.1.15,2013-05-08 21:18:00,
2013-05-08 17:23:00,61.8,61.2,29.98,ESE,114,2.0,2.0,98,0.00,,,0.51,Wunderground v.1.15,2013-05-08 21:23:00,
2013-05-08 17:28:00,61.8,61.2,29.98,SSE,148,1.0,2.0,98,0.00,,,0.51,Wunderground v.1.15,2013-05-08 21:28:00,
2013-05-08 17:33:00,61.9,61.3,29.98,SW,236,1.0,1.0,98,0.00,,,0.51,Wunderground v.1.15,2013-05-08 21:33:00,
2013-05-08 17:39:00,61.8,60.9,29.98,SW,236,0.0,1.0,97,0.00,,,0.51,Wunderground v.1.15,2013-05-08 21:39:00,
2013-05-08 17:44:00,61.8,60.9,29.97,SW,236,0.0,1.0,97,0.00,,,0.51,Wunderground v.1.15,2013-05-08 21:44:00,
2013-05-08 17:50:00,61.8,60.9,29.97,SW,236,1.0,1.0,97,0.00,,,0.51,Wunderground v.1.15,2013-05-08 21:50:00,
2013-05-08 17:55:00,61.7,60.5,29.97,SE,124,1.0,2.0,96,0.00,,,0.51,Wunderground v.1.15,2013-05-08 21:55:00,
2013-05-08 18:00:00,61.6,60.4,29.97,East,98,1.0,1.0,96,0.00,,,0.51,Wunderground v.1.15,2013-05-08 22:00:00,
2013-05-08 18:06:00,61.6,60.4,29.97,East,97,1.0,2.0,96,0.00,,,0.51,Wunderground v.1.15,2013-05-08 22:06:00,
2013-05-08 23:29:00,-999.9,-99.9,-32.77,North,32767,-999.0,4.0,255,-99.99,,,0.00,Wunderground v.1.15,2013-05-09 03:29:00,
2013-05-08 23:35:00,53.1,52.6,30.00,SE,140,0.0,4.0,98,0.00,,,0.00,Wunderground v.1.15,2013-05-09 03:35:00,
2013-05-08 23:41:00,52.9,52.4,30.00,SE,140,0.0,0.0,98,0.00,,,0.00,Wunderground v.1.15,2013-05-09 03:41:00,
2013-05-08 23:46:00,52.7,52.2,30.00,SE,140,0.0,0.0,98,0.00,,,0.00,Wunderground v.1.15,2013-05-09 03:46:00,
2013-05-08 23:51:00,52.6,52.1,30.00,SE,140,0.0,0.0,98,0.00,,,0.00,Wunderground v.1.15,2013-05-09 03:51:00,
2013-05-08 23:57:00,52.4,51.9,30.00,SE,140,0.0,0.0,98,0.00,,,0.00,Wunderground v.1.15,2013-05-09 03:57:00,